Flag for U.S.A. Weather past 2 weeks in Chula Vista, California, U.S.A.

Now
51 °F

Clear.


Feels Like: 51 °F
Forecast: 51 / 71 °F
Wind: 3 mph from Southeast

Location: Brown Field Municipal Airport

Current Time: Jan 28, 2015 at 1:36:43 AM

Latest Report: Jan 28, 2015 at 12:53 AM


Visibility: 8 mi

Pressure: 30.15 "Hg

Humidity: 89%

Dew point: 48 °F

Location of Chula VistaLocation

Historic Weather in Chula Vista — Graph

°F

Chula Vista temperature yesterday

Maximum temperature yesterday: 72 °F (at 11:53 AM)
Minimum temperature yesterday: 50 °F (at 11:53 PM)
Average temperature yesterday: 60 °F

Past Weeks' High & Low Weather Summary

 TemperatureHumidityPressure
High77 °F (Jan 25, 12:53 PM)100% (Jan 20, 2:53 AM)30.23 "Hg (Jan 20, 2:53 AM)
Low43 °F (Jan 16, 6:53 AM)7% (Jan 23, 11:53 AM)29.93 "Hg (Jan 20, 4:53 PM)
Average59 °F53%30.09 "Hg
* Reported Jan 12 11:53 PM — Jan 27 11:53 PM, Chula Vista, Weather by CustomWeather, © 2014

Note: Actual official high and low records may vary slightly from our data, if they occured in-between our weather recording intervals... More about our weather records

Advertising

Chula Vista weather history for previous 24 hours

 ConditionsComfort  
Time TempWeatherWind HumidityBarometerVisibility
11:53 PM
Jan 27
50 °FClear.6 mph93%30.15 "Hg9 mi
10:53 PM54 °FClear.3 mph86%30.14 "Hg10 mi
9:53 PM55 °FClear.5 mph83%30.15 "Hg10 mi
8:53 PM56 °FClear.3 mph81%30.16 "Hg10 mi
7:53 PM60 °FClear.3 mph72%30.17 "Hg10 mi
6:53 PM60 °FClear.No wind72%30.15 "Hg10 mi
5:53 PM59 °FClear.6 mph81%30.14 "Hg10 mi
4:53 PM63 °FSunny.6 mph73%30.13 "Hg10 mi
3:53 PM65 °FSunny.9 mph56%30.14 "Hg10 mi
2:53 PM69 °FSunny.10 mph44%30.13 "Hg10 mi
1:53 PM70 °FSunny.9 mph46%30.12 "Hg10 mi
12:53 PM72 °FSunny.10 mph41%30.12 "Hg10 mi
11:53 AM72 °FSunny.5 mph41%30.14 "Hg10 mi
10:53 AM70 °FSunny.3 mph42%30.17 "Hg10 mi
9:53 AM66 °FSunny.5 mph52%30.18 "Hg10 mi
8:53 AM61 °FSunny.5 mph65%30.17 "Hg10 mi
7:53 AM57 °FSunny.7 mph74%30.17 "Hg10 mi
6:53 AM54 °FPartly sunny.7 mph77%30.16 "Hg10 mi
5:53 AM54 °FPassing clouds.6 mph77%30.14 "Hg10 mi
4:53 AM55 °FOvercast.8 mph80%30.12 "Hg10 mi
3:53 AM51 °FPassing clouds.7 mph86%30.11 "Hg10 mi
2:53 AM54 °FPassing clouds.5 mph80%30.11 "Hg10 mi
1:53 AM53 °FPassing clouds.5 mph86%30.10 "Hg10 mi
Weather by CustomWeather, © 2014

See weather overviewHow to use our weather pages